Location: Hawaiian Village Mobile Home Park
(32.8359°N, 116.9792°W)
Time: 02:46:03
(UTC+00:00)

ADEOS - Pass Details

Date: 01 December 2021
Orbit: 792 x 795 km, 98.9° (Epoch: 23 January)

Event Time Altitude Azimuth Distance (km) Brightness Sun altitude
Rises 12:37:06 0° 23° (NNE) 3,299 6.9 -23.8°
Reaches altitude 10° 12:39:37 10° 32° (NNE) 2,366 6.3 -23.3°
Maximum altitude 12:44:24 36° 99° (E) 1,229 5.1 -22.3°
Drops below altitude 10° 12:49:10 10° 165° (SSE) 2,351 6.3 -21.3°
Sets 12:51:39 0° 174° (S) 3,276 7.0 -20.8°
